This is the latest recevied weather packets stored in our database for station/object K3RUP-1. If no packets are shown the sender has not sent any weather packets the latest 10 day(s).
| Time | Temp. | Humidity | Pressure | Rain* | Wind** | Luminosity | Snow |
|---|---|---|---|---|---|---|---|
| 1778019964 | 26.67° C | 40% | 1008.6 hPa | 0 mm | - | 48 W/m² | - |
| 1778019660 | 26.67° C | 34% | 1008.6 hPa | 0 mm | - | 49 W/m² | - |
| 1778019357 | 26.67° C | 32% | 1008.7 hPa | 0 mm | - | 52 W/m² | - |
| 1778019053 | 27.22° C | 35% | 1008.6 hPa | 0 mm | - | 60 W/m² | - |
| 1778018751 | 27.22° C | 34% | 1008.4 hPa | 0 mm | - | 69 W/m² | - |
| 1778018449 | 27.22° C | 39% | 1008.7 hPa | 0 mm | - | 97 W/m² | - |
| 1778018147 | 27.78° C | 35% | 1008.4 hPa | 0 mm | - | 88 W/m² | - |
| 1778017844 | 27.78° C | 34% | 1008.7 hPa | 0 mm | - | 85 W/m² | - |
| 1778017542 | 27.22° C | 33% | 1008.5 hPa | 0 mm | - | 92 W/m² | - |
| 1778017239 | 27.22° C | 40% | 1008.4 hPa | 0 mm | - | 97 W/m² | - |
| 1778016937 | 26.67° C | 42% | 1008.3 hPa | 0 mm | - | 67 W/m² | - |
| 1778016632 | 27.22° C | 44% | 1008.5 hPa | 0 mm | - | 89 W/m² | - |
| 1778016329 | 27.22° C | 43% | 1008.3 hPa | 0 mm | - | 133 W/m² | - |
| 1778016026 | 27.22° C | 45% | 1008.4 hPa | 0 mm | - | 273 W/m² | - |
| 1778015723 | 26.67° C | 43% | 1008.4 hPa | 0 mm | - | 154 W/m² | - |
| 1778015420 | 26.67° C | 42% | 1008.3 hPa | 0 mm | - | 106 W/m² | - |
| 1778015117 | 27.78° C | 44% | 1008.4 hPa | 0 mm | - | 186 W/m² | - |
| 1778014814 | 28.33° C | 43% | 1008.2 hPa | 0 mm | - | 248 W/m² | - |
| 1778014512 | 28.33° C | 43% | 1008.3 hPa | 0 mm | - | 360 W/m² | - |
| 1778014209 | 27.78° C | 36% | 1008.3 hPa | 0 mm | - | 364 W/m² | - |
| 1778013907 | 27.22° C | 46% | 1008.3 hPa | 0 mm | - | 272 W/m² | - |
| 1778013603 | 27.22° C | 46% | 1008.2 hPa | 0 mm | - | 453 W/m² | - |
| 1778013300 | 26.67° C | 47% | 1008.1 hPa | 0 mm | - | 443 W/m² | - |
| 1778012996 | 27.78° C | 46% | 1008.4 hPa | 0 mm | - | 450 W/m² | - |
| 1778012693 | 27.78° C | 45% | 1008.5 hPa | 0 mm | - | 435 W/m² | - |
* Rain latest hour (hover to see other rain measurements)
** Current wind speed in m/s (hover to see current wind gust speed)